[[{"header":{"parameterUnit":"m.s-1","parameterCategory":1,"la1":30.2991,"la2":30.254,"lo1":-89.0895,"lo2":-89.0444,"dy":0.0017,"dx":0.0017,"nx":28,"ny":28,"refTime":"2024-10-16T03:00:00:Z","depth":0,"parameterNumber":2,"parameterNumberName":"U-component_of_WINDS"},"data":[0,0,0,0,0,0,0,0,0,0,0,0,0,0,0,0,0,0,0,0,0,0,0,0,0,0,0,0,0,0,0,0,0,0,0,0,0,0,0,0,0,0,0,0,0,0,0,0,0,0,0,0,0,0,0,0,0,0,-2.6612,-2.6611,0,-2.6585,-2.6585,-2.6584,-2.6489,-2.6486,-2.6484,-2.6482,-2.6458,-2.6459,-2.646,0,0,0,0,0,0,0,0,0,0,0,0,0,-2.6583,-2.6584,-2.6612,-2.6611,-2.6611,-2.6585,-2.6585,-2.6584,-2.6489,-2.6486,-2.6484,-2.6481,-2.6457,-2.6459,-2.646,0,0,0,0,0,0,0,0,0,0,0,0,0,-2.658,-2.6584,-2.6612,-2.656,-2.6555,-2.6585,-2.6585,-2.6584,-2.649,-2.6486,-2.6483,-2.648,-2.6457,-2.6459,-2.6461,-2.6539,0,0,-2.6467,-2.6468,0,0,0,0,0,0,0,0,-2.658,-2.6581,-2.6568,-2.6564,-2.6558,-2.6537,-2.6565,-2.6569,-2.649,-2.6515,-2.6482,-2.6478,-2.6487,-2.6486,-2.6488,-2.6538,-2.6537,-2.6467,-2.6468,-2.6469,-2.647,0,0,0,0,0,0,0,-2.658,-2.6581,-2.6601,-2.6568,-2.6562,-2.6539,-2.6535,-2.6566,-2.6519,-2.6512,-2.6505,-2.6503,-2.6483,-2.6487,-2.6487,-2.6536,-2.6467,-2.6469,-2.647,-2.6471,-2.6651,-2.6655,0,0,0,0,0,0,-2.6587,-2.6582,-2.6602,-2.66,-2.6561,-2.6543,-2.6538,-2.6547,-2.6519,-2.6511,-2.6506,-2.6499,-2.6485,-2.6485,-2.6486,-2.6578,-2.6469,-2.6471,-2.6472,-2.6648,-2.6652,-2.6656,0,0,0,0,0,0,-2.6587,-2.659,-2.6603,-2.6589,-2.6589,-2.6546,-2.6557,-2.6548,-2.6551,-2.6514,-2.6506,-2.6518,-2.6482,-2.6483,-2.6527,-2.6575,-2.6472,-2.6474,-2.6644,-2.6649,-2.6654,-2.6761,0,0,0,0,0,0,-2.6587,-2.6591,-2.6619,-2.6591,-2.659,-2.6644,-2.656,-2.655,-2.6555,-2.6545,-2.6523,-2.6516,-2.648,-2.6524,-2.6529,-2.6576,-2.6476,-2.6639,-2.6646,-2.6652,-2.6753,-2.6769,-2.6783,0,0,0,0,0,-2.6586,-2.665,-2.6621,-2.6624,-2.6625,-2.6647,-2.6647,-2.6603,-2.6559,-2.6588,-2.6565,-2.6517,-2.6569,-2.653,-2.6534,-2.6583,-2.6636,-2.6644,-2.6652,-2.6746,-2.6766,-2.6783,0,0,0,0,0,0,-2.6686,-2.6646,-2.6613,-2.6669,-2.6662,-2.663,-2.6666,-2.6625,-2.6631,-2.6621,-2.6567,-2.6563,-2.6616,-2.6603,-2.656,-2.6658,-2.6595,-2.6604,-2.6665,-2.6683,-2.6698,-2.6701,-2.6477,0,0,0,0,0,-2.6715,-2.6735,-2.6698,-2.6752,-2.675,-2.6709,-2.6717,-2.6684,-2.6674,-2.6671,-2.665,-2.6644,-2.6659,-2.667,-2.6682,-2.675,-2.6745,-2.6786,-2.6801,-2.6814,-2.6823,-2.686,-2.6879,-2.6682,-2.6682,-2.6682,0,0,-2.6774,-2.6754,-2.677,-2.6772,-2.6762,-2.6786,-2.6707,-2.6734,-2.6752,-2.6675,-2.6716,-2.6701,-2.669,-2.6747,-2.6771,-2.6738,-2.6876,-2.6824,-2.6834,-2.6836,-2.687,-2.6889,-2.6906,-2.6687,-2.6686,-2.6686,0,0,-2.6894,-2.6881,-2.6925,-2.6917,-2.6904,-2.6876,-2.6887,-2.6861,-2.6848,-2.6888,-2.6832,-2.6852,-2.6878,-2.6874,-2.6875,-2.6995,-2.6953,-2.7001,-2.708,-2.7118,-2.7133,-2.7147,-2.7192,-2.7208,-2.701,-2.701,-2.701,0,-2.697,-2.7002,-2.6953,-2.6985,-2.6988,-2.6919,-2.6965,-2.6959,-2.6951,-2.6956,-2.6918,-2.6952,-2.6939,-2.6996,-2.7025,-2.7028,-2.704,-2.7004,-2.7135,-2.7148,-2.716,-2.7202,-2.7219,-2.7016,-2.7015,-2.7015,-2.7014,0,-2.7097,-2.7121,-2.7158,-2.7152,-2.7159,-2.7197,-2.7155,-2.7168,-2.7135,-2.7112,-2.7154,-2.7137,-2.7145,-2.7156,-2.7123,-2.7208,-2.7188,-2.7144,-2.7079,-2.7185,-2.7225,-2.724,-2.7025,-2.7022,-2.7021,-2.7019,0,0,-2.728,-2.7247,-2.7261,-2.7259,-2.7239,-2.7257,-2.7293,-2.73,-2.7314,-2.731,-2.7341,-2.7365,-2.7324,-2.7326,-2.7292,-2.7325,-2.7424,-2.7276,-2.7275,-2.7306,-2.7519,-2.7555,-2.7574,-2.7395,-2.7398,-2.74,-2.7521,0,-2.7397,-2.7456,-2.7413,-2.748,-2.7502,-2.7438,-2.7469,-2.7462,-2.7442,-2.7458,-2.7435,-2.7455,-2.7398,-2.7399,-2.7428,-2.7406,-2.7467,-2.7396,-2.7425,-2.7426,-2.7431,-2.7594,-2.7631,-2.7746,-2.7536,-2.7538,-2.754,0,-2.754,-2.7544,-2.7613,-2.7591,-2.7598,-2.7627,-2.7632,-2.7648,-2.7639,-2.7621,-2.7624,-2.7583,-2.7618,-2.7553,-2.7603,-2.7556,-2.7565,-2.7556,-2.756,-2.7562,-2.7491,-2.7603,-2.7781,-2.7799,-2.7563,-2.7561,-2.756,0,-2.767,-2.7691,-2.7736,-2.7735,-2.771,-2.7732,-2.7723,-2.771,-2.7718,-2.7722,-2.7727,-2.7735,-2.774,-2.7748,-2.7711,-2.7667,-2.7766,-2.7698,-2.7755,-2.7756,-2.778,-2.7779,-2.7964,-2.7783,-2.7782,-2.7782,-2.7782,0,-2.7805,-2.7851,-2.7794,-2.7822,-2.7872,-2.7822,-2.7873,-2.7857,-2.7847,-2.7872,-2.7816,-2.7841,-2.7789,-2.7808,-2.7779,-2.7826,-2.7828,-2.7817,-2.7809,-2.7823,-2.7825,-2.783,-2.7822,-2.7787,-2.7786,-2.7785,-2.7784,0,-2.7959,-2.7922,-2.7967,-2.7939,-2.7934,-2.7972,-2.7949,-2.7974,-2.795,-2.7982,-2.7987,-2.7949,-2.797,-2.7933,-2.7949,-2.7929,-2.7996,-2.7974,-2.7999,-2.7993,-2.8053,-2.8049,-2.8249,-2.8274,-2.8075,-2.8077,-2.8079,0,-2.8048,-2.8082,-2.8058,-2.8071,-2.8064,-2.8085,-2.8092,-2.8046,-2.8056,-2.8049,-2.8076,-2.8092,-2.8102,-2.8138,-2.8114,-2.8126,-2.8106,-2.8175,-2.8108,-2.8121,-2.811,-2.8109,-2.8113,-2.819,-2.8192,-2.8194,-2.8196,0,-2.8213,-2.8193,-2.8206,-2.8213,-2.8224,-2.8228,-2.8227,-2.8241,-2.8192,-2.8207,-2.8227,-2.8235,-2.8251,-2.8269,-2.8275,-2.8267,-2.8225,-2.8217,-2.8231,-2.8247,-2.8261,-2.8257,-2.8039,-2.8213,-2.8211,-2.821,-2.8209,-2.8208,-2.8338,-2.8366,-2.8354,-2.8371,-2.8366,-2.8367,-2.839,-2.8369,-2.8385,-2.8394,-2.8366,-2.8393,-2.8385,-2.8389,-2.8386,-2.8407,-2.8377,-2.8397,-2.8402,-2.8409,-2.8419,-2.8256,-2.8408,-2.8408,-2.8407,-2.8407,-2.8406,0,-2.8501,-2.849,-2.8506,-2.8508,-2.8522,-2.8479,-2.8477,-2.8492,-2.8516,-2.8512,-2.8523,-2.8548,-2.8564,-2.8541,-2.8554,-2.8577,-2.8558,-2.8582,-2.8581,-2.858,-2.8445,-2.8432,-2.8597,-2.8597,-2.8597,-2.8597,-2.8597,-2.8597,-2.8588,-2.8633,-2.8613,-2.8656,-2.8644,-2.8671,-2.8673,-2.8675,-2.8671,-2.8701,-2.8715,-2.8699,-2.8687,-2.8699,-2.8714,-2.8707,-2.8715,-2.8747,-2.8734,-2.8608,-2.8589,-2.8572,-2.856,-2.8749,-2.8749,-2.8867,-2.8868,-2.8869]},{"header":{"parameterUnit":"m.s-1","parameterCategory":1,"la1":30.2991,"la2":30.254,"lo1":-89.0895,"lo2":-89.0444,"dy":0.0017,"dx":0.0017,"nx":28,"ny":28,"refTime":"2024-10-16T03:00:00:Z","depth":0,"parameterNumber":3,"parameterNumberName":"V-component_of_WINDS"},"data":[0,0,0,0,0,0,0,0,0,0,0,0,0,0,0,0,0,0,0,0,0,0,0,0,0,0,0,0,0,0,0,0,0,0,0,0,0,0,0,0,0,0,0,0,0,0,0,0,0,0,0,0,0,0,0,0,0,0,-2.1504,-2.1504,0,-2.1507,-2.1507,-2.1507,-2.1475,-2.1474,-2.1473,-2.1472,-2.1474,-2.1475,-2.1476,0,0,0,0,0,0,0,0,0,0,0,0,0,-2.147,-2.1471,-2.1504,-2.1504,-2.1504,-2.1507,-2.1507,-2.1507,-2.1475,-2.1474,-2.1473,-2.1472,-2.1474,-2.1475,-2.1476,0,0,0,0,0,0,0,0,0,0,0,0,0,-2.148,-2.1471,-2.1504,-2.1488,-2.1487,-2.1507,-2.1507,-2.1507,-2.1475,-2.1474,-2.1472,-2.1471,-2.1473,-2.1475,-2.1476,-2.1511,0,0,-2.148,-2.1481,0,0,0,0,0,0,0,0,-2.148,-2.1481,-2.1491,-2.149,-2.1488,-2.1489,-2.1496,-2.1508,-2.1475,-2.148,-2.1472,-2.147,-2.148,-2.1481,-2.1484,-2.1511,-2.1511,-2.148,-2.1481,-2.1481,-2.1482,0,0,0,0,0,0,0,-2.1479,-2.1481,-2.1505,-2.1491,-2.1489,-2.1481,-2.1481,-2.1498,-2.1487,-2.1479,-2.1477,-2.1477,-2.1479,-2.1483,-2.1484,-2.1511,-2.148,-2.1481,-2.1482,-2.1483,-2.1567,-2.1568,0,0,0,0,0,0,-2.1481,-2.1481,-2.1505,-2.1505,-2.1481,-2.1483,-2.1483,-2.149,-2.1487,-2.1485,-2.1479,-2.1476,-2.1481,-2.1482,-2.1484,-2.1526,-2.1481,-2.1483,-2.1483,-2.1566,-2.1567,-2.1569,0,0,0,0,0,0,-2.148,-2.1483,-2.1505,-2.1492,-2.1495,-2.1485,-2.1493,-2.1491,-2.1495,-2.1487,-2.1484,-2.1485,-2.148,-2.1482,-2.1505,-2.1525,-2.1483,-2.1484,-2.1564,-2.1566,-2.1568,-2.1608,0,0,0,0,0,0,-2.1479,-2.1483,-2.1496,-2.1493,-2.1495,-2.1526,-2.1494,-2.1492,-2.1497,-2.1494,-2.1492,-2.149,-2.1479,-2.1503,-2.1506,-2.1526,-2.1485,-2.1562,-2.1565,-2.1568,-2.1605,-2.1612,-2.1617,0,0,0,0,0,-2.1478,-2.1507,-2.1497,-2.15,-2.1512,-2.1527,-2.1529,-2.1516,-2.1499,-2.1512,-2.1507,-2.149,-2.1522,-2.1505,-2.1509,-2.153,-2.1561,-2.1564,-2.1567,-2.1603,-2.161,-2.1617,0,0,0,0,0,0,-2.1513,-2.1506,-2.1495,-2.1524,-2.1527,-2.1522,-2.1538,-2.1524,-2.1532,-2.1528,-2.1512,-2.1511,-2.1537,-2.1535,-2.1517,-2.1563,-2.1538,-2.1542,-2.1564,-2.1571,-2.1577,-2.1578,-2.1487,0,0,0,0,0,-2.1524,-2.1537,-2.153,-2.1557,-2.1558,-2.1548,-2.1554,-2.1544,-2.1546,-2.1547,-2.1543,-2.1545,-2.1556,-2.1563,-2.1572,-2.1604,-2.1604,-2.162,-2.1626,-2.1631,-2.1635,-2.1653,-2.1661,-2.158,-2.158,-2.158,0,0,-2.1547,-2.1545,-2.1554,-2.1564,-2.1564,-2.1579,-2.1549,-2.1565,-2.1576,-2.1549,-2.1571,-2.1568,-2.1569,-2.1597,-2.1609,-2.1596,-2.1658,-2.1635,-2.1639,-2.1641,-2.1658,-2.1665,-2.1672,-2.1582,-2.1582,-2.1581,0,0,-2.1596,-2.1596,-2.1618,-2.1619,-2.1621,-2.1614,-2.1619,-2.1617,-2.1614,-2.1636,-2.1616,-2.1628,-2.1646,-2.1648,-2.1652,-2.1702,-2.1687,-2.1705,-2.1738,-2.1755,-2.1762,-2.1767,-2.1787,-2.1794,-2.1709,-2.1709,-2.1709,0,-2.1625,-2.1646,-2.1631,-2.1649,-2.1654,-2.1631,-2.1654,-2.1655,-2.166,-2.1664,-2.1649,-2.1672,-2.1671,-2.17,-2.1712,-2.1715,-2.1721,-2.1706,-2.1762,-2.1767,-2.1772,-2.1791,-2.1798,-2.1712,-2.1711,-2.1711,-2.1711,0,-2.1681,-2.1696,-2.1714,-2.172,-2.1726,-2.1746,-2.1735,-2.1743,-2.1733,-2.1727,-2.175,-2.1748,-2.1757,-2.1762,-2.1751,-2.1789,-2.1782,-2.1765,-2.174,-2.1783,-2.18,-2.1807,-2.1715,-2.1714,-2.1714,-2.1713,0,0,-2.1754,-2.1751,-2.1758,-2.1761,-2.1761,-2.1772,-2.1791,-2.18,-2.1808,-2.1812,-2.1828,-2.1844,-2.1829,-2.1832,-2.1822,-2.1837,-2.1879,-2.1818,-2.1818,-2.1831,-2.1922,-2.1936,-2.1945,-2.1868,-2.1869,-2.187,-2.1923,0,-2.1803,-2.1837,-2.1824,-2.1858,-2.1872,-2.185,-2.1867,-2.1869,-2.1864,-2.1875,-2.1869,-2.1882,-2.1859,-2.1862,-2.1876,-2.1871,-2.1897,-2.1867,-2.1884,-2.1885,-2.1886,-2.1953,-2.1968,-2.2017,-2.1929,-2.193,-2.1931,0,-2.1866,-2.1873,-2.1909,-2.1907,-2.1913,-2.1928,-2.1936,-2.1946,-2.1948,-2.1943,-2.1948,-2.1934,-2.1953,-2.1926,-2.1952,-2.1932,-2.1938,-2.1936,-2.1938,-2.194,-2.1912,-2.1959,-2.2033,-2.2041,-2.1941,-2.194,-2.1939,0,-2.1918,-2.1936,-2.196,-2.1962,-2.1961,-2.1972,-2.1972,-2.1972,-2.1979,-2.1985,-2.1989,-2.1997,-2.2002,-2.2009,-2.1998,-2.1979,-2.2026,-2.1998,-2.2023,-2.2024,-2.2035,-2.2035,-2.2113,-2.2037,-2.2036,-2.2036,-2.2036,0,-2.1975,-2.1999,-2.1983,-2.1998,-2.2024,-2.2009,-2.2034,-2.2031,-2.2032,-2.2046,-2.2026,-2.204,-2.2023,-2.2035,-2.2026,-2.205,-2.2051,-2.2049,-2.2047,-2.2052,-2.2052,-2.2057,-2.2054,-2.2038,-2.2038,-2.2037,-2.2037,0,-2.2038,-2.2028,-2.2054,-2.205,-2.205,-2.2069,-2.2065,-2.2079,-2.2073,-2.2091,-2.2094,-2.2084,-2.2098,-2.2086,-2.2099,-2.2093,-2.2125,-2.2116,-2.2125,-2.2123,-2.215,-2.2148,-2.2234,-2.2245,-2.216,-2.2161,-2.2162,0,-2.2077,-2.2094,-2.2092,-2.2101,-2.2102,-2.2115,-2.2122,-2.2108,-2.2116,-2.2119,-2.2133,-2.2144,-2.2153,-2.2175,-2.2169,-2.2178,-2.2171,-2.2201,-2.2173,-2.2178,-2.2174,-2.2174,-2.2176,-2.2207,-2.2208,-2.2209,-2.221,0,-2.2146,-2.2141,-2.2152,-2.2161,-2.217,-2.2176,-2.2181,-2.2189,-2.2174,-2.2184,-2.2197,-2.2204,-2.2217,-2.2229,-2.2237,-2.2236,-2.2221,-2.2218,-2.2225,-2.2231,-2.2236,-2.2236,-2.2142,-2.2217,-2.2216,-2.2215,-2.2215,-2.2215,-2.2199,-2.2214,-2.2216,-2.2229,-2.2231,-2.2236,-2.2249,-2.2245,-2.2256,-2.2266,-2.2256,-2.2273,-2.2274,-2.2283,-2.2284,-2.2297,-2.2285,-2.2294,-2.2297,-2.23,-2.2305,-2.2233,-2.2298,-2.2298,-2.2298,-2.2298,-2.2297,0,-2.227,-2.227,-2.2282,-2.229,-2.23,-2.2284,-2.2288,-2.2298,-2.2313,-2.2316,-2.2325,-2.2341,-2.2352,-2.2347,-2.2357,-2.2369,-2.2362,-2.2372,-2.2372,-2.2372,-2.2314,-2.2308,-2.2377,-2.2377,-2.2377,-2.2377,-2.2377,-2.2377,-2.2308,-2.2333,-2.2328,-2.2354,-2.2353,-2.237,-2.2374,-2.2379,-2.2381,-2.24,-2.241,-2.2406,-2.2406,-2.2416,-2.2426,-2.2424,-2.2429,-2.2442,-2.2438,-2.2384,-2.2376,-2.2369,-2.2363,-2.2443,-2.2443,-2.2496,-2.2496,-2.2496]}]]